Regional Weather Roundup
Issued by NWS

Home | Current Version | Previous Version | Text Only | Print | Product List | Glossary On
Versions: 1 2 3 4 5 6 7 8 9 10 11 12 13 14 15 16 17 18 19 20 21 22 23 24 25 26 27 28 29 30 31 32 33 34 35 36 37 38 39 40 41 42 43 44 45 46 47 48 49 50
000
ASUS43 KBIS 292210
RWRND

NORTH DAKOTA REGIONAL WEATHER ROUNDUP
NATIONAL WEATHER SERVICE BISMARCK ND
500 PM CDT FRI JUL 29 2016

NOTE: "FAIR" INDICATES FEW OR NO CLOUDS BELOW 12,000 FEET WITH NO
SIGNIFICANT WEATHER AND/OR OBSTRUCTIONS TO VISIBILITY.


NDZ001>003-009>011-017-292300-
NORTHWEST NORTH DAKOTA

CITY           SKY/WX    TMP DP  RH WIND       PRES   REMARKS
WILLISTON      CLOUDY    80  47  31 SW3       30.00F
MINOT          CLOUDY    82  56  40 SE5       29.99F
MINOT AFB      PTSUNNY   80  59  48 VRB7      29.98F
$$

NDZ018>021-031>035-040>046-292300-
SOUTHWEST NORTH DAKOTA

CITY           SKY/WX    TMP DP  RH WIND       PRES   REMARKS
BISMARCK       MOSUNNY   81  59  47 SE7       30.00F
DICKINSON      MOSUNNY   78  54  43 VRB5      30.00F
GARRISON         N/A     78  58  49 VRB5      30.01F
HETTINGER ARPT PTSUNNY   85  52  32 S10       30.02F
$$

NDZ004>008-012>016-024-026-027-054-292300-
NORTHEAST NORTH DAKOTA

CITY           SKY/WX    TMP DP  RH WIND       PRES   REMARKS
GRAND FORKS    PTSUNNY   79  55  43 SW6       30.01F
GRND FRKS AFB  MOSUNNY   78  55  44 W6        30.02F
DEVILS LAKE    SUNNY     76  59  55 SE7       30.03F
$$

NDZ022-023-025-028>030-036>039-047>053-292300-
SOUTHEAST NORTH DAKOTA

CITY           SKY/WX    TMP DP  RH WIND       PRES   REMARKS
FARGO          CLOUDY    81  58  45 N7        30.02F
JAMESTOWN      MOSUNNY   72  62  71 S7        30.03F
$$





USA.gov is the U.S. government's official web portal to all federal, state and local government web resources and services.